Volver al catálogo

STARLINK-3060

ActivoComunicacionesVLEO
NORAD 49155·PAYLOAD·🇺🇸 United States

Lanzado Sep 14, 2021 desde Vandenberg Space Force Base

Loading…

Próximos Pases (próximas 24 horas)

TLE

ActualizadoSource: CelesTrak SupGP

Época: Sep 14, 2026, 14:44 UTC

1 49155C 21082AB  26257.61437500  .00043007  00000+0  36036-2 0  2575
2 49155  70.0004 138.1030 0002793 266.6925  22.5056 14.98314911    12

Sigue STARLINK-3060 en tiempo real con AllMySat

Download on the App Store